Fairbanks Eiels, AK

6:49 AM AKST on December 09, 2019 (GMT -0900)
Eielson Air Force Base

Weather History for PAEI - October, 2019

Change the Weather History Date:

Tuesday, October 29, 2019

  Actual Average Record
Temperature  
Mean Temperature 34 °F -  
Max Temperature 42 °F 20 °F 50 °F (2002)
Min Temperature 26 °F 5 °F -28 °F (1975)
Degree Days  
Heating Degree Days 31    
Moisture  
Dew Point 28 °F    
Average Humidity 84    
Maximum Humidity 93    
Minimum Humidity 61    
Precipitation  
Precipitation 0.00 in - - ()
Sea Level Pressure  
Sea Level Pressure 29.79 in    
Wind  
Wind Speed 2 mph (East)    
Max Wind Speed 9 mph    
Max Gust Speed -    
Visibility 10 miles    
Events      
Averages and records for this station are not official NWS values.
T = Trace of Precipitation, MM = Missing Value Source: NWS Daily Summary

Daily Weather History Graph

Daily Weather History Graph

Search for Another Location

Airport or City:

Astronomy

Oct. 29, 2019 Rise Set
Actual Time 9:24 AM AKDT 5:38 PM AKDT
Civil Twilight 8:31 AM AKDT 6:31 PM AKDT
Nautical Twilight 7:33 AM AKDT 7:29 PM AKDT
Astronomical Twilight 6:37 AM AKDT 8:25 PM AKDT
Moon 11:42 AM AKDT (10/29) 6:29 PM AKDT (10/29)
Length of Visible Light 10h 00m
Length of Day
8h 13m
Waxing Crescent, 4% of the Moon is Illuminated
Oct 29
Waxing Crescent
Nov 4
First Quarter
Nov 12
Full
Nov 19
Last Quarter
Nov 26
New

Hourly Weather History & Observations

Time (AKDT) Temp. Windchill Dew Point Humidity Pressure Visibility Wind Dir Wind Speed Gust Speed Precip Events Conditions
12:56 AM 27.5 °F - 25.5 °F 92% 29.82 in 6.0 mi Calm Calm - N/A   Scattered Clouds
1:11 AM 26.6 °F - 24.8 °F 93% 29.82 in 8.0 mi Calm Calm - N/A   Scattered Clouds
1:56 AM 30.2 °F 24.3 °F 26.6 °F 86% 29.79 in 10.0 mi North 5.8 mph - N/A   Partly Cloudy
2:56 AM 29.7 °F 26.1 °F 27.1 °F 90% 29.83 in 10.0 mi West 3.5 mph - N/A   Clear
3:56 AM 30.4 °F - 27.5 °F 89% 29.82 in 10.0 mi Calm Calm - N/A   Partly Cloudy
5:56 AM 28.2 °F - 25.9 °F 91% 29.81 in 10.0 mi Calm Calm - N/A   Clear
6:56 AM 28.0 °F - 26.1 °F 92% 29.81 in 10.0 mi Calm Calm - N/A   Clear
7:56 AM 27.5 °F 23.6 °F 25.5 °F 92% 29.81 in 10.0 mi NNW 3.5 mph - N/A   Clear
8:56 AM 26.8 °F - 24.8 °F 92% 29.81 in 10.0 mi Calm Calm - N/A   Mostly Cloudy
9:56 AM 27.1 °F - 24.8 °F 91% 29.81 in 10.0 mi Calm Calm - N/A   Mostly Cloudy
10:56 AM 28.6 °F - 26.1 °F 90% 29.80 in 10.0 mi Calm Calm - N/A   Mostly Cloudy
12:56 PM 32.2 °F - 28.9 °F 88% 29.80 in 10.0 mi Calm Calm - N/A   Mostly Cloudy
1:56 PM 34.3 °F - 30.6 °F 86% 29.78 in 10.0 mi Calm Calm - N/A   Mostly Cloudy
2:56 PM 37.0 °F - 32.7 °F 84% 29.77 in 10.0 mi Calm Calm - N/A   Mostly Cloudy
3:56 PM 35.6 °F - 32.2 °F 87% 29.77 in 10.0 mi Calm Calm - N/A   Mostly Cloudy
4:56 PM 41.0 °F 35.2 °F 31.6 °F 69% 29.75 in 10.0 mi SE 9.2 mph - N/A   Mostly Cloudy
5:56 PM 42.8 °F 38.0 °F 30.2 °F 61% 29.72 in 10.0 mi East 8.1 mph - N/A   Mostly Cloudy
6:56 PM 42.4 °F 38.8 °F 31.5 °F 65% 29.76 in 10.0 mi ENE 5.8 mph - N/A   Mostly Cloudy
7:56 PM 38.1 °F - 30.6 °F 74% 29.77 in 10.0 mi Calm Calm - N/A   Mostly Cloudy
8:56 PM 37.6 °F 32.3 °F 29.7 °F 73% 29.78 in 10.0 mi WSW 6.9 mph - N/A   Mostly Cloudy
9:56 PM 32.7 °F - 28.8 °F 85% 29.78 in 10.0 mi Calm Calm - N/A   Mostly Cloudy
10:56 PM 34.3 °F 31.4 °F 28.8 °F 80% 29.78 in 10.0 mi SSE 3.5 mph - N/A   Overcast
11:56 PM 33.3 °F - 28.4 °F 82% 29.78 in 10.0 mi Calm Calm - N/A   Mostly Cloudy